Location: Albany
(35.0000°S, 118.0000°E)
Time: 05:56:06
(UTC-04:00)

Amateur Radio Satellites - All Passes

Search period start: 28 May 2016 05:26
Search period end: 29 May 2016 05:26
Location: Albany, 35.0000°S, 118.0000°E

Satellite Date Start Highest point End Downlink Frequencies (MHz)
Time Altitude Azimuth
LilacSat-2 28 May 05:26:57 05:29:07 14° 87° (E) 05:31:15 437.200
YUBILEINY 28 May 05:28:50 05:29:41 10° 255° (WSW) 05:30:32 435.215
AO-7 28 May 05:34:46 05:41:28 28° 239° (WSW) 05:48:09 29.400- 29.500
JUGNU 28 May 05:37:43 05:40:58 15° 9° (N) 05:44:13 437.505
DOVE 4 28 May 06:06:24 06:08:52 13° 88° (E) 06:11:20 437.250
NOAA 15 28 May 06:07:11 06:12:32 75° 77° (ENE) 06:17:50 137.62
HORYU 2 28 May 06:08:05 06:10:53 16° 246° (WSW) 06:13:39 437.375
Cosmos 2504 28 May 06:10:36 06:15:06 17° 261° (W) 06:19:29 435.465 / 435.565
Cubesat XI-IV 28 May 06:13:41 06:19:01 58° 79° (E) 06:24:16 437.490
NOAA 18 28 May 06:15:34 06:21:11 73° 77° (ENE) 06:26:42 137.9125
STRAND 1 28 May 06:21:59 06:27:04 59° 106° (ESE) 06:32:12 437.568
AO-85 28 May 06:24:30 06:27:06 17° 230° (SW) 06:29:45 145.980
BRITE-PL 28 May 06:33:22 06:38:15 72° 256° (WSW) 06:43:28 437.365/2234.400
M-CUBED/EXP-1 PRIME 28 May 06:51:07 06:52:15 11° 85° (E) 06:53:23 437.505
GOMX 1 28 May 06:55:19 07:00:26 90° 67° (ENE) 07:05:49 467.674
CUTE-I 28 May 06:59:56 07:05:09 50° 253° (WSW) 07:10:16 437.470
LilacSat-2 28 May 06:59:56 07:03:29 32° 253° (WSW) 07:07:00 437.200
AIST 1 28 May 07:15:52 07:19:42 29° 102° (ESE) 07:23:30
GONETS M04 28 May 07:20:21 07:27:27 26° 109° (ESE) 07:34:27
JUGNU 28 May 07:25:25 07:29:14 18° 359° (N) 07:33:03 437.505
SRMSAT 28 May 07:32:08 07:35:15 14° 11° (N) 07:38:22 437.500
DOVE 4 28 May 07:41:41 07:46:49 64° 255° (WSW) 07:52:04 437.250
NOAA 15 28 May 07:49:28 07:51:36 12° 242° (WSW) 07:53:44 137.62
SO-50 28 May 07:51:12 07:54:30 19° 130° (SE) 07:57:51 436.795
PRISM 28 May 07:54:31 07:58:38 78° 282° (WNW) 08:02:49 437.425
Cubesat XI-IV 28 May 07:55:18 07:58:33 16° 244° (WSW) 08:01:46 437.490
NOAA 18 28 May 07:58:23 08:01:08 14° 241° (WSW) 08:03:52 137.9125
CANX-2 28 May 07:58:29 08:02:44 61° 80° (E) 08:06:56 2200.000
SEEDS 28 May 08:00:18 08:04:15 37° 82° (E) 08:08:09 437.485
STRAND 1 28 May 08:04:02 08:06:34 14° 272° (W) 08:09:07 437.568
O/OREOS (USA 219) 28 May 08:04:08 08:07:57 27° 78° (ENE) 08:11:48 437.305
CINEMA 3 28 May 08:08:36 08:13:43 78° 78° (ENE) 08:18:44 145.822/145.860
AUBIESAT-1 28 May 08:15:16 08:20:02 82° 73° (ENE) 08:24:38 437.475
HO-68 28 May 08:18:06 08:25:22 78° 76° (ENE) 08:32:33 435.675
M-CUBED/EXP-1 PRIME 28 May 08:22:22 08:27:09 69° 251° (WSW) 08:31:48 437.505
CUTE 1.7 + AOD 2 28 May 08:25:37 08:29:54 71° 255° (WSW) 08:34:07 437.475
PCSat 28 May 08:26:41 08:31:47 44° 69° (ENE) 08:36:57 145.827
Oscar 11 28 May 08:32:39 08:35:48 19° 86° (E) 08:38:55 145.826/435.025
COMPASS 1 28 May 08:45:09 08:49:22 84° 260° (W) 08:53:31 437.405
AAUSAT CUBESAT 2 28 May 08:47:05 08:51:18 80° 79° (E) 08:55:26 437.432
ZACube-1 28 May 08:47:26 08:51:19 27° 85° (E) 08:55:06 437.345
Cosmos 2499 28 May 08:48:13 08:55:19 51° 101° (E) 09:02:09 435.465 / 435.565
AIST 1 28 May 08:53:58 08:57:02 19° 268° (W) 09:00:06
CUBEBUG 2 28 May 08:54:41 08:59:32 77° 78° (ENE) 09:04:11 437.445
UNISAT 6 28 May 09:04:46 09:08:43 29° 110° (ESE) 09:12:48 437.425
TIGRISAT 28 May 09:11:56 09:16:02 33° 109° (ESE) 09:20:15 435.000
DELFI C3 28 May 09:12:48 09:16:06 24° 84° (E) 09:19:20 145.870
JUGNU 28 May 09:14:45 09:17:30 13° 349° (NNW) 09:20:15 437.505
GONETS M04 28 May 09:16:01 09:24:46 62° 271° (W) 09:33:27
SRMSAT 28 May 09:19:43 09:23:42 18° 0° (N) 09:27:40 437.500
UWE-3 28 May 09:22:08 09:26:53 77° 258° (WSW) 09:31:25 435.000/436.395/437.385
FUNcube-1 28 May 09:24:39 09:29:15 70° 78° (ENE) 09:33:39 145.935
BEESAT 3 28 May 09:26:47 09:28:06 11° 72° (ENE) 09:29:24 437.485
SO-50 28 May 09:30:41 09:35:10 47° 295° (WNW) 09:39:44 436.795
SEEDS 28 May 09:37:09 09:39:35 15° 247° (WSW) 09:42:00 437.485
DUCHIFAT 1 28 May 09:42:16 09:42:47 10° 116° (ESE) 09:43:17 145.980
O/OREOS (USA 219) 28 May 09:43:38 09:47:17 24° 242° (WSW) 09:50:59 437.305
ANTELSAT 28 May 09:45:11 09:49:47 83° 103° (ESE) 09:54:32 437.575/2403.000
CINEMA 3 28 May 09:48:42 09:50:06 11° 243° (WSW) 09:51:31 145.822/145.860
AUBIESAT-1 28 May 09:52:55 09:53:45 10° 238° (WSW) 09:54:35 437.475
HO-68 28 May 10:07:36 10:12:14 19° 239° (WSW) 10:16:51 435.675
Oscar 11 28 May 10:08:06 10:11:56 30° 251° (WSW) 10:15:44 145.826/435.025
PCSat 28 May 10:11:07 10:15:22 23° 233° (SW) 10:19:39 145.827
POPSAT HIP 1 28 May 10:17:37 10:21:20 30° 109° (ESE) 10:25:08 437.405
QB50P1 28 May 10:17:55 10:21:40 31° 109° (ESE) 10:25:29 145.935-145.965
ESTCUBE 1 28 May 10:19:21 10:20:20 11° 89° (E) 10:21:20 437.505/2401.250
QB50P2 28 May 10:20:19 10:24:12 35° 108° (ESE) 10:28:09 145.880/145.840
POLYITAN 1 28 May 10:22:44 10:26:39 36° 108° (ESE) 10:30:38 437.675
ZACube-1 28 May 10:23:45 10:27:27 24° 249° (WSW) 10:31:03 437.345
HUMSAT D 28 May 10:25:36 10:29:56 86° 78° (ENE) 10:34:08 437.325/437.525
BEESAT 2 28 May 10:28:18 10:31:56 35° 67° (ENE) 10:35:36 435.950
CUBEBUG 2 28 May 10:35:18 10:35:23 10° 243° (WSW) 10:35:28 437.445
NANOSAT C BR1 28 May 10:35:35 10:39:39 48° 106° (ESE) 10:43:48 145.865
VELOX 1 28 May 10:38:04 10:39:33 11° 88° (E) 10:41:02 145.980
UNISAT 6 28 May 10:41:44 10:45:23 23° 275° (W) 10:49:09 437.425
Cosmos 2499 28 May 10:42:29 10:47:48 22° 263° (W) 10:53:01 435.465 / 435.565
DELFI C3 28 May 10:47:49 10:50:48 20° 250° (WSW) 10:53:45 145.870
TIGRISAT 28 May 10:49:19 10:52:44 21° 274° (W) 10:56:15 435.000
JAS-2 28 May 10:52:12 10:54:25 12° 116° (ESE) 10:56:34 435.910
BEESAT 3 28 May 11:01:33 11:05:20 46° 238° (WSW) 11:09:09 437.485
SRMSAT 28 May 11:08:51 11:12:09 15° 350° (N) 11:15:26 437.500
AISAT 28 May 11:12:01 11:16:03 31° 83° (E) 11:20:03 437.250
DUCHIFAT 1 28 May 11:13:42 11:17:53 60° 280° (W) 11:22:09 145.980
50 SAT 28 May 11:15:03 11:18:27 34° 82° (E) 11:21:48 437.505
CUSAT 1 28 May 11:15:32 11:19:51 90° 94° (E) 11:23:14 437.405
DANDE 28 May 11:15:54 11:20:59 35° 83° (E) 11:24:57 436.750
UKube-1 28 May 11:16:36 11:19:59 22° 84° (E) 11:23:21 .
BUGSAT 1 28 May 11:28:50 11:32:55 90° 178° (S) 11:37:05 437.445
ESTCUBE 1 28 May 11:52:59 11:57:28 58° 255° (WSW) 12:01:54 437.505/2401.250
POPSAT HIP 1 28 May 11:54:07 11:57:07 19° 274° (W) 12:00:11 437.405
QB50P1 28 May 11:54:31 11:57:27 18° 274° (W) 12:00:28 145.935-145.965
QB50P2 28 May 11:57:25 12:00:05 16° 274° (W) 12:02:48 145.880/145.840
POLYITAN 1 28 May 11:59:55 12:02:33 16° 273° (W) 12:05:12 437.675
CUBEBUG 1 28 May 12:02:52 12:07:18 65° 255° (WSW) 12:11:41 437.445
DX 1 28 May 12:03:51 12:08:18 81° 255° (WSW) 12:12:42 434.975-435.025
BEESAT 2 28 May 12:07:10 12:09:53 17° 231° (SW) 12:12:36 435.950
VELOX 1 28 May 12:11:53 12:16:17 54° 254° (WSW) 12:20:39 145.980
NANOSAT C BR1 28 May 12:14:09 12:15:37 12° 272° (W) 12:17:06 145.865
SPROUT 28 May 12:26:23 12:30:48 87° 77° (ENE) 12:35:09 437.525
JAS-2 28 May 12:33:15 12:38:59 70° 282° (WNW) 12:44:19 435.910
Oscar 19 28 May 12:34:16 12:39:20 60° 106° (ESE) 12:44:27 437.125/150
AIST 2 28 May 12:43:29 12:47:36 67° 63° (ENE) 12:51:46 435.215
TISAT 1 28 May 12:47:54 12:51:56 37° 81° (E) 12:55:54 437.305
AISAT 28 May 12:48:57 12:52:18 21° 248° (WSW) 12:55:37 437.250
50 SAT 28 May 12:50:17 12:51:50 12° 248° (WSW) 12:53:20 437.505
AO-7 28 May 12:50:39 12:53:08 12° 131° (SE) 12:55:38 29.400- 29.500
UKube-1 28 May 12:52:15 12:55:59 28° 250° (WSW) 12:59:41 .
DANDE 28 May 13:00:01 13:03:36 18° 259° (W) 13:06:38 436.750
Gurwin Techsat 1B 28 May 13:03:18 13:08:24 47° 108° (ESE) 13:13:33 435.225
AO-85 28 May 13:17:09 13:20:06 16° 130° (SE) 13:23:10 145.980
ITAMSAT 1 28 May 13:18:37 13:22:51 25° 113° (ESE) 13:27:06 435.822/435.867
SWISSCUBE 28 May 13:52:40 13:57:08 38° 82° (E) 14:01:34 437.505
ITUPSAT 1 28 May 13:59:14 14:03:47 39° 81° (E) 14:08:14 437.325
Oscar 19 28 May 14:16:37 14:19:00 13° 272° (W) 14:21:24 437.125/150
BEESAT 28 May 14:22:00 14:26:51 73° 78° (ENE) 14:31:37 436.000
TISAT 1 28 May 14:24:35 14:27:14 16° 247° (WSW) 14:29:52 437.305
AIST 2 28 May 14:25:02 14:26:32 12° 227° (SW) 14:28:03 435.215
YUBILEINY 28 May 14:27:34 14:34:34 27° 97° (E) 14:41:37 435.215
Cosmos 2491 28 May 14:30:24 14:39:12 61° 100° (E) 14:47:55 435.465 / 435.565
AO-7 28 May 14:36:00 14:44:12 62° 112° (ESE) 14:52:28 29.400- 29.500
Gurwin Techsat 1B 28 May 14:44:54 14:48:32 18° 274° (W) 14:52:13 435.225
AO-85 28 May 14:56:08 15:00:50 61° 296° (WNW) 15:05:53 145.980
ITAMSAT 1 28 May 14:57:19 15:02:05 35° 278° (W) 15:06:54 435.822/435.867
KKS-1 28 May 15:04:12 15:07:46 22° 84° (E) 15:11:19 437.445
HORYU 2 28 May 15:25:23 15:29:09 26° 111° (ESE) 15:32:57 437.375
MOZHAYETS 4 28 May 15:25:42 15:29:47 30° 83° (E) 15:33:47
SWISSCUBE 28 May 15:31:12 15:34:37 20° 247° (WSW) 15:38:01 437.505
STARS 28 May 15:37:17 15:41:04 26° 83° (E) 15:44:49 437.465
ITUPSAT 1 28 May 15:37:54 15:41:16 19° 247° (WSW) 15:44:36 437.325
RS-15 28 May 16:01:24 16:12:55 57° 69° (ENE) 16:23:55 29.354- 29.394
NOAA 18 28 May 16:02:05 16:04:10 12° 120° (ESE) 16:06:16 137.9125
BEESAT 28 May 16:02:51 16:03:58 11° 243° (WSW) 16:05:03 436.000
YUBILEINY 28 May 16:22:04 16:30:43 57° 259° (W) 16:39:29 435.215
Cosmos 2491 28 May 16:28:33 16:35:17 25° 263° (W) 16:42:00 435.465 / 435.565
AO-7 28 May 16:30:44 16:37:20 26° 276° (W) 16:44:01 29.400- 29.500
CUTE-I 28 May 16:39:51 16:43:54 22° 114° (ESE) 16:47:57 437.470
KKS-1 28 May 16:40:22 16:44:17 29° 250° (WSW) 16:48:09 437.445
Cosmos 2504 28 May 16:47:18 16:56:03 66° 88° (E) 17:04:30 435.465 / 435.565
CUBESAT XI-V 28 May 16:53:32 16:57:35 28° 84° (E) 17:01:35 437.345
HORYU 2 28 May 17:01:56 17:05:36 24° 276° (W) 17:09:20 437.375
MOZHAYETS 4 28 May 17:03:09 17:06:45 23° 249° (WSW) 17:10:17
STARS 28 May 17:13:38 17:17:17 24° 249° (WSW) 17:20:53 437.465
PCSat 28 May 17:18:29 17:22:24 20° 129° (SE) 17:26:18 145.827
NOAA 15 28 May 17:23:52 17:29:09 85° 104° (ESE) 17:34:29 137.62
Cubesat XI-IV 28 May 17:32:11 17:37:33 69° 106° (ESE) 17:42:59 437.490
LilacSat-2 28 May 17:37:53 17:41:45 72° 104° (ESE) 17:45:41 437.200
NOAA 18 28 May 17:38:27 17:44:01 83° 284° (WNW) 17:49:41 137.9125
BRITE-PL 28 May 17:41:40 17:45:54 89° 284° (WNW) 17:50:08 437.365/2234.400
GOMX 1 28 May 18:00:50 18:04:57 63° 104° (ESE) 18:09:13 467.674
RS-15 28 May 18:14:45 18:25:37 41° 229° (SW) 18:36:07 29.354- 29.394
O/OREOS (USA 219) 28 May 18:16:54 18:21:06 32° 116° (ESE) 18:25:14 437.305
CUTE-I 28 May 18:18:29 18:23:35 43° 279° (W) 18:28:45 437.470
CUBESAT XI-V 28 May 18:31:06 18:34:48 24° 249° (WSW) 18:38:28 437.345
STRAND 1 28 May 18:36:29 18:40:47 26° 84° (E) 18:45:01 437.568
HO-68 28 May 18:43:02 18:49:40 41° 113° (ESE) 18:56:22 435.675
Cosmos 2504 28 May 18:43:05 18:49:54 24° 251° (WSW) 18:56:34 435.465 / 435.565
DOVE 4 28 May 18:44:08 18:48:21 90° 288° (WNW) 18:52:49 437.250
CANX-2 28 May 18:48:05 18:51:48 28° 109° (ESE) 18:55:33 2200.000
SEEDS 28 May 18:49:29 18:52:27 18° 111° (ESE) 18:55:25 437.485
AUBIESAT-1 28 May 18:58:20 19:02:03 54° 110° (ESE) 19:06:07 437.475
ISS 28 May 18:59:00 19:00:53 14° 53° (NE) 19:02:46 145.825
PCSat 28 May 19:00:49 19:06:08 54° 292° (WNW) 19:11:23 145.827
M-CUBED/EXP-1 PRIME 28 May 19:05:52 19:09:37 87° 106° (ESE) 19:13:45 437.505
CINEMA 3 28 May 19:06:55 19:11:08 45° 107° (ESE) 19:15:35 145.822/145.860
CUTE 1.7 + AOD 2 28 May 19:14:34 19:18:46 51° 105° (ESE) 19:22:59 437.475
Cubesat XI-IV 28 May 19:15:50 19:18:03 12° 271° (W) 19:20:16 437.490
BEESAT 3 28 May 19:21:53 19:25:28 32° 124° (SE) 19:29:02 437.485
Oscar 11 28 May 19:26:22 19:27:25 11° 115° (ESE) 19:28:27 145.826/435.025
COMPASS 1 28 May 19:32:24 19:36:22 40° 107° (ESE) 19:40:22 437.405
AAUSAT CUBESAT 2 28 May 19:34:02 19:37:49 33° 108° (ESE) 19:41:37 437.432
PRISM 28 May 19:40:22 19:43:12 18° 85° (E) 19:46:00 437.425
ZACube-1 28 May 19:40:52 19:43:31 15° 114° (ESE) 19:46:12 437.345
AIST 1 28 May 19:42:22 19:45:28 20° 92° (E) 19:48:35
CUBEBUG 2 28 May 19:49:11 19:53:25 41° 107° (ESE) 19:57:52 437.445
O/OREOS (USA 219) 28 May 19:56:48 20:00:15 21° 281° (W) 20:03:41 437.305
PHONESAT 2.4 28 May 20:10:06 20:12:55 31° 31° (NNE) 20:15:46 2401.200-2431.200
UWE-3 28 May 20:15:15 20:19:40 56° 106° (ESE) 20:24:15 435.000/436.395/437.385
STRAND 1 28 May 20:15:22 20:19:53 31° 249° (WSW) 20:24:21 437.568
FUNcube-1 28 May 20:16:36 20:20:41 36° 108° (ESE) 20:24:55 145.935
GONETS M04 28 May 20:17:20 20:24:45 32° 95° (E) 20:32:14
SEEDS 28 May 20:24:03 20:27:53 32° 277° (W) 20:31:46 437.485
CANX-2 28 May 20:24:23 20:27:37 20° 275° (W) 20:30:53 2200.000
BEESAT 2 28 May 20:26:38 20:30:38 78° 298° (WNW) 20:34:35 435.950
HO-68 28 May 20:31:00 20:37:21 34° 277° (W) 20:43:48 435.675
ISS 28 May 20:33:52 20:37:02 43° 218° (SW) 20:40:14 145.825
RS-15 28 May 20:37:10 20:42:24 14° 198° (SSW) 20:47:34 29.354- 29.394
CINEMA 3 28 May 20:46:18 20:48:33 14° 271° (W) 20:50:51 145.822/145.860
CUTE 1.7 + AOD 2 28 May 20:53:32 20:54:51 11° 271° (W) 20:56:11 437.475
Oscar 11 28 May 20:58:37 21:02:57 61° 280° (W) 21:07:21 145.826/435.025
BEESAT 3 28 May 21:00:22 21:02:53 16° 290° (WNW) 21:05:24 437.485
AIST 2 28 May 21:08:48 21:11:40 18° 130° (SE) 21:14:29 435.215
COMPASS 1 28 May 21:09:54 21:12:04 14° 273° (W) 21:14:15 437.405
AAUSAT CUBESAT 2 28 May 21:10:38 21:13:21 17° 274° (W) 21:16:04 437.432
HUMSAT D 28 May 21:13:18 21:17:19 38° 107° (ESE) 21:21:23 437.325/437.525
PRISM 28 May 21:14:53 21:18:30 29° 251° (WSW) 21:22:06 437.425
ZACube-1 28 May 21:15:03 21:19:20 45° 279° (W) 21:23:46 437.345
Cosmos 2499 28 May 21:19:05 21:27:24 50° 90° (E) 21:35:18 435.465 / 435.565
AIST 1 28 May 21:19:13 21:22:50 26° 257° (WSW) 21:26:29
CUBEBUG 2 28 May 21:27:30 21:30:13 16° 272° (W) 21:33:03 437.445
DELFI C3 28 May 21:29:14 21:33:12 55° 280° (W) 21:37:12 145.870
ANTELSAT 28 May 21:41:08 21:44:52 23° 85° (E) 21:48:30 437.575/2403.000
PHONESAT 2.4 28 May 21:46:31 21:49:36 48° 196° (SSW) 21:52:41 2401.200-2431.200
CUSAT 1 28 May 21:50:39 21:53:46 32° 99° (E) 21:57:38 437.405
50 SAT 28 May 21:52:21 21:53:24 11° 113° (ESE) 21:54:26 437.505
FUNcube-1 28 May 21:53:56 21:57:00 18° 273° (W) 22:00:09 145.935
UWE-3 28 May 21:55:00 21:56:28 11° 270° (W) 21:57:57 435.000/436.395/437.385
AISAT 28 May 22:06:54 22:10:02 19° 112° (ESE) 22:13:12 437.250
UKube-1 28 May 22:09:25 22:11:22 13° 115° (ESE) 22:13:18 .
GONETS M04 28 May 22:12:47 22:21:08 48° 258° (WSW) 22:29:38
NANOSAT C BR1 28 May 22:26:40 22:26:57 10° 89° (E) 22:27:15 145.865
UNISAT 6 28 May 22:35:44 22:40:29 83° 257° (WSW) 22:45:04 437.425
TIGRISAT 28 May 22:42:52 22:47:36 74° 256° (WSW) 22:52:09 435.000
AIST 2 28 May 22:46:24 22:50:17 38° 293° (WNW) 22:54:07 435.215
ESTCUBE 1 28 May 22:48:44 22:53:17 85° 103° (ESE) 22:57:52 437.505/2401.250
HUMSAT D 28 May 22:50:27 22:53:02 16° 273° (W) 22:55:40 437.325/437.525
CUBEBUG 1 28 May 22:55:13 22:59:30 67° 105° (ESE) 23:03:52 437.445
DX 1 28 May 22:55:50 23:00:05 55° 105° (ESE) 23:04:24 434.975-435.025
RS-15 28 May 22:56:05 23:01:55 15° 158° (SSE) 23:07:41 29.354- 29.394
DUCHIFAT 1 28 May 23:01:33 23:05:15 27° 83° (E) 23:08:52 145.980
VELOX 1 28 May 23:05:28 23:09:52 87° 102° (ESE) 23:14:21 145.980
Cosmos 2499 28 May 23:13:12 23:20:38 31° 254° (WSW) 23:27:47 435.465 / 435.565
BUGSAT 1 28 May 23:14:57 23:17:49 17° 86° (E) 23:20:41 437.445
SPROUT 28 May 23:16:34 23:20:36 42° 107° (ESE) 23:24:42 437.525
ANTELSAT 28 May 23:17:27 23:21:31 29° 250° (WSW) 23:25:29 437.575/2403.000
50 SAT 28 May 23:23:07 23:26:41 41° 279° (W) 23:30:18 437.505
PHONESAT 2.4 28 May 23:23:54 23:26:43 28° 180° (S) 23:29:32 2401.200-2431.200
CUSAT 1 28 May 23:34:46 23:35:43 11° 274° (W) 23:36:44 437.405
TISAT 1 28 May 23:37:06 23:40:04 19° 112° (ESE) 23:43:03 437.305
DANDE 28 May 23:39:56 23:42:15 21° 276° (W) 23:44:53 436.750
POPSAT HIP 1 28 May 23:40:41 23:45:04 90° 209° (SSW) 23:49:23 437.405
QB50P1 28 May 23:40:57 23:45:20 88° 249° (WSW) 23:49:39 145.935-145.965
SO-50 28 May 23:41:44 23:46:04 65° 240° (WSW) 23:50:29 436.795
AISAT 28 May 23:42:18 23:46:14 32° 278° (W) 23:50:16 437.250
UKube-1 28 May 23:42:44 23:46:55 49° 280° (W) 23:51:11 .
QB50P2 28 May 23:43:45 23:48:07 77° 256° (WSW) 23:52:25 145.880/145.840
JAS-2 28 May 23:45:53 23:49:33 16° 85° (E) 23:53:26 435.910
POLYITAN 1 28 May 23:46:13 23:50:36 75° 256° (WSW) 23:54:54 437.675
NANOSAT C BR1 28 May 23:58:44 00:03:00 56° 255° (WSW) 00:07:12 145.865
DX 1 29 May 00:35:49 00:36:35 10° 272° (W) 00:37:20 434.975-435.025
DUCHIFAT 1 29 May 00:37:26 00:40:46 22° 249° (WSW) 00:44:04 145.980
BUGSAT 1 29 May 00:49:21 00:53:14 33° 252° (WSW) 00:57:05 437.445
Oscar 19 29 May 00:49:38 00:54:05 28° 84° (E) 00:58:31 437.125/150
SPROUT 29 May 00:54:33 00:56:43 14° 273° (W) 00:58:56 437.525
SWISSCUBE 29 May 00:55:56 01:00:09 31° 110° (ESE) 01:04:24 437.505
PHONESAT 2.4 29 May 01:00:44 01:03:51 49° 163° (SSE) 01:06:56 2401.200-2431.200
ITUPSAT 1 29 May 01:02:47 01:07:03 32° 110° (ESE) 01:11:22 437.325
RS-15 29 May 01:07:30 01:18:01 48° 128° (SE) 01:28:26 29.354- 29.394
TISAT 1 29 May 01:11:45 01:15:27 30° 277° (W) 01:19:15 437.305
Gurwin Techsat 1B 29 May 01:23:27 01:27:47 24° 85° (E) 01:32:03 435.225
BEESAT 29 May 01:24:53 01:29:36 57° 107° (ESE) 01:34:22 436.000
JAS-2 29 May 01:29:04 01:34:48 62° 254° (WSW) 01:41:11 435.910
ITAMSAT 1 29 May 01:37:27 01:38:18 10° 89° (E) 01:39:07 435.822/435.867
Cosmos 2491 29 May 01:37:50 01:40:21 11° 104° (ESE) 01:42:52 435.465 / 435.565
KKS-1 29 May 02:00:10 02:02:37 15° 114° (ESE) 02:05:04 437.445
MOZHAYETS 4 29 May 02:24:47 02:28:13 21° 112° (ESE) 02:31:41
Oscar 19 29 May 02:28:47 02:33:19 30° 249° (WSW) 02:37:49 437.125/150
STARS 29 May 02:31:39 02:34:23 16° 114° (ESE) 02:37:07 437.465
SWISSCUBE 29 May 02:34:03 02:37:54 24° 276° (W) 02:41:47 437.505
YUBILEINY 29 May 02:36:18 02:45:05 63° 100° (E) 02:53:43 435.215
PHONESAT 2.4 29 May 02:37:40 02:40:31 31° 329° (NNW) 02:43:21 2401.200-2431.200
ITUPSAT 1 29 May 02:41:04 02:44:52 23° 275° (W) 02:48:42 437.325
AO-7 29 May 02:42:35 02:48:58 24° 85° (E) 02:55:16 29.400- 29.500
Cosmos 2504 29 May 02:46:56 02:51:17 16° 113° (ESE) 02:55:30 435.465 / 435.565
Gurwin Techsat 1B 29 May 03:02:52 03:07:44 36° 250° (WSW) 03:12:33 435.225
ISS 29 May 03:04:05 03:07:19 44° 141° (SE) 03:10:30 145.825
BEESAT 29 May 03:05:38 03:07:41 13° 272° (W) 03:09:44 436.000
ITAMSAT 1 29 May 03:12:59 03:18:15 75° 255° (WSW) 03:23:25 435.822/435.867
RS-15 29 May 03:20:08 03:30:08 44° 288° (WNW) 03:40:12 29.354- 29.394
Cosmos 2491 29 May 03:26:54 03:35:35 78° 86° (E) 03:44:24 435.465 / 435.565
KKS-1 29 May 03:34:28 03:38:44 45° 280° (W) 03:43:05 437.445
CUBESAT XI-V 29 May 03:54:10 03:57:33 20° 112° (ESE) 04:00:56 437.345
MOZHAYETS 4 29 May 04:00:53 04:05:06 34° 278° (W) 04:09:24
STARS 29 May 04:06:14 04:10:21 39° 279° (W) 04:14:34 437.465
AO-7 29 May 04:33:56 04:42:11 65° 249° (WSW) 04:50:22 29.400- 29.500
YUBILEINY 29 May 04:34:32 04:41:04 24° 262° (W) 04:47:33 435.215
Cosmos 2504 29 May 04:38:00 04:45:32 76° 274° (W) 04:52:41 435.465 / 435.565
ISS 29 May 04:41:40 04:43:27 14° 307° (NW) 04:45:15 145.825
HORYU 2 29 May 04:55:09 04:59:43 82° 79° (E) 05:04:12 437.375
AO-85 29 May 05:08:19 05:12:06 78° 241° (WSW) 05:16:01 145.980
LilacSat-2 29 May 05:17:40 05:18:08 10° 89° (E) 05:18:36 437.200
